Time,TemperatureF,DewpointF,PressureIn,WindDirection,WindDirectionDegrees,WindSpeedMPH,WindSpeedGustMPH,Humidity,HourlyPrecipIn,Conditions,Clouds,dailyrainin,SoftwareType,DateUTC
2014-01-05 00:04:00,9.2,1.4,30.59,ENE,65,2.0,9.0,70,0.00,,,0.00,Wunderground v.1.15,2014-01-05 07:04:00,
2014-01-05 00:10:00,9.1,0.7,30.59,East,82,1.0,9.0,68,0.00,,,0.00,Wunderground v.1.15,2014-01-05 07:10:00,
2014-01-05 00:15:00,9.1,-0.3,30.59,East,80,1.0,9.0,65,0.00,,,0.00,Wunderground v.1.15,2014-01-05 07:15:00,
2014-01-05 00:20:00,9.0,-0.4,30.60,East,80,1.0,1.0,65,0.00,,,0.00,Wunderground v.1.15,2014-01-05 07:20:00,
2014-01-05 00:25:00,9.0,-0.4,30.60,ENE,78,1.0,4.0,65,0.00,,,0.00,Wunderground v.1.15,2014-01-05 07:25:00,
2014-01-05 00:30:00,9.1,-0.3,30.61,ENE,68,3.0,9.0,65,0.00,,,0.00,Wunderground v.1.15,2014-01-05 07:30:00,
2014-01-05 00:35:00,9.0,-0.7,30.60,East,86,3.0,9.0,64,0.00,,,0.00,Wunderground v.1.15,2014-01-05 07:35:00,
2014-01-05 00:45:00,9.3,0.5,30.61,ENE,78,4.0,9.0,67,0.00,,,0.00,Wunderground v.1.15,2014-01-05 07:45:00,
2014-01-05 00:50:00,9.4,1.0,30.62,ENE,61,3.0,9.0,68,0.00,,,0.00,Wunderground v.1.15,2014-01-05 07:50:00,
2014-01-05 00:55:00,9.3,0.9,30.62,ENE,69,4.0,9.0,68,0.00,,,0.00,Wunderground v.1.15,2014-01-05 07:55:00,
2014-01-05 01:05:00,9.5,2.0,30.63,ENE,64,3.0,9.0,71,0.00,,,0.00,Wunderground v.1.15,2014-01-05 08:05:00,
2014-01-05 01:10:00,9.5,2.0,30.63,ENE,59,3.0,3.0,71,0.00,,,0.00,Wunderground v.1.15,2014-01-05 08:10:00,
2014-01-05 01:19:00,8.9,1.1,30.64,NNE,15,0.0,8.0,70,0.00,,,0.00,Wunderground v.1.15,2014-01-05 08:19:00,
2014-01-05 01:24:00,8.6,0.5,30.65,NNE,20,0.0,8.0,69,0.00,,,0.00,Wunderground v.1.15,2014-01-05 08:24:00,
2014-01-05 01:29:00,8.4,0.3,30.65,WSW,240,0.0,8.0,69,0.00,,,0.00,Wunderground v.1.15,2014-01-05 08:29:00,
2014-01-05 01:34:00,8.2,0.4,30.66,WSW,240,1.0,8.0,70,0.00,,,0.00,Wunderground v.1.15,2014-01-05 08:34:00,
2014-01-05 01:39:00,8.0,0.8,30.67,WSW,240,0.0,8.0,72,0.00,,,0.00,Wunderground v.1.15,2014-01-05 08:39:00,
2014-01-05 01:44:00,7.8,0.6,30.67,WSW,240,0.0,8.0,72,0.00,,,0.00,Wunderground v.1.15,2014-01-05 08:44:00,
2014-01-05 01:54:00,7.3,-2.3,30.67,SSW,194,0.0,8.0,64,0.00,,,0.00,Wunderground v.1.15,2014-01-05 08:54:00,
2014-01-05 01:59:00,7.3,-2.3,30.68,SSW,194,0.0,8.0,64,0.00,,,0.00,Wunderground v.1.15,2014-01-05 08:59:00,
2014-01-05 02:04:00,7.3,-2.7,30.68,SSW,194,0.0,8.0,63,0.00,,,0.00,Wunderground v.1.15,2014-01-05 09:04:00,
2014-01-05 02:09:00,7.5,-2.5,30.68,ENE,76,0.0,1.0,63,0.00,,,0.00,Wunderground v.1.15,2014-01-05 09:09:00,
2014-01-05 02:14:00,7.8,-2.9,30.69,ENE,69,1.0,4.0,61,0.00,,,0.00,Wunderground v.1.15,2014-01-05 09:14:00,
2014-01-05 02:19:00,7.9,-2.4,30.69,ESE,104,2.0,2.0,62,0.00,,,0.00,Wunderground v.1.15,2014-01-05 09:19:00,
2014-01-05 02:29:00,7.9,-2.4,30.70,East,91,1.0,1.0,62,0.00,,,0.00,Wunderground v.1.15,2014-01-05 09:29:00,
2014-01-05 02:34:00,7.7,-2.6,30.70,East,91,0.0,1.0,62,0.00,,,0.00,Wunderground v.1.15,2014-01-05 09:34:00,
2014-01-05 02:39:00,7.6,-2.1,30.70,East,94,0.0,0.0,64,0.00,,,0.00,Wunderground v.1.15,2014-01-05 09:39:00,
2014-01-05 02:44:00,7.6,-2.4,30.71,ESE,119,0.0,0.0,63,0.00,,,0.00,Wunderground v.1.15,2014-01-05 09:44:00,
2014-01-05 02:49:00,7.5,-2.8,30.71,ESE,119,0.0,1.0,62,0.00,,,0.00,Wunderground v.1.15,2014-01-05 09:49:00,
2014-01-05 02:59:00,7.2,-2.8,30.72,SW,232,0.0,0.0,63,0.00,,,0.00,Wunderground v.1.15,2014-01-05 09:59:00,
2014-01-05 03:04:00,7.1,-2.2,30.73,SW,232,0.0,2.0,65,0.00,,,0.00,Wunderground v.1.15,2014-01-05 10:04:00,
2014-01-05 03:09:00,7.0,-1.0,30.73,East,92,0.0,2.0,69,0.00,,,0.00,Wunderground v.1.15,2014-01-05 10:09:00,
2014-01-05 03:14:00,7.0,-0.4,30.74,East,92,0.0,2.0,71,0.00,,,0.00,Wunderground v.1.15,2014-01-05 10:14:00,
2014-01-05 03:19:00,7.0,-0.4,30.74,East,82,0.0,2.0,71,0.00,,,0.00,Wunderground v.1.15,2014-01-05 10:19:00,
2014-01-05 03:24:00,6.9,-0.8,30.74,ESE,119,0.0,2.0,70,0.00,,,0.00,Wunderground v.1.15,2014-01-05 10:24:00,
2014-01-05 03:34:00,7.0,-0.4,30.75,ESE,115,0.0,2.0,71,0.00,,,0.00,Wunderground v.1.15,2014-01-05 10:34:00,
2014-01-05 03:39:00,6.9,-0.5,30.75,NNE,24,0.0,2.0,71,0.00,,,0.00,Wunderground v.1.15,2014-01-05 10:39:00,
2014-01-05 03:44:00,6.8,-0.6,30.75,North,5,0.0,2.0,71,0.00,,,0.00,Wunderground v.1.15,2014-01-05 10:44:00,
2014-01-05 03:49:00,6.6,-0.8,30.75,WSW,242,0.0,2.0,71,0.00,,,0.00,Wunderground v.1.15,2014-01-05 10:49:00,
2014-01-05 03:54:00,6.5,-0.9,30.76,SSW,209,0.0,2.0,71,0.00,,,0.00,Wunderground v.1.15,2014-01-05 10:54:00,
2014-01-05 03:59:00,6.3,-0.8,30.76,SSW,209,0.0,2.0,72,0.00,,,0.00,Wunderground v.1.15,2014-01-05 10:59:00,
2014-01-05 04:09:00,6.1,-0.4,30.77,SW,228,0.0,2.0,74,0.00,,,0.00,Wunderground v.1.15,2014-01-05 11:09:00,
2014-01-05 04:14:00,6.0,-0.5,30.76,WSW,240,0.0,2.0,74,0.00,,,0.00,Wunderground v.1.15,2014-01-05 11:14:00,
2014-01-05 04:19:00,5.9,-0.6,30.76,WSW,240,0.0,1.0,74,0.00,,,0.00,Wunderground v.1.15,2014-01-05 11:19:00,
2014-01-05 04:24:00,5.8,-0.7,30.77,WSW,240,0.0,1.0,74,0.00,,,0.00,Wunderground v.1.15,2014-01-05 11:24:00,
2014-01-05 04:29:00,5.7,-0.8,30.78,WSW,240,0.0,1.0,74,0.00,,,0.00,Wunderground v.1.15,2014-01-05 11:29:00,
2014-01-05 04:34:00,5.5,-1.3,30.78,SSW,212,0.0,1.0,73,0.00,,,0.00,Wunderground v.1.15,2014-01-05 11:34:00,
2014-01-05 04:40:00,5.4,-1.7,30.79,West,273,0.0,1.0,72,0.00,,,0.00,Wunderground v.1.15,2014-01-05 11:40:00,
2014-01-05 04:45:00,5.3,-1.8,30.79,SW,222,0.0,1.0,72,0.00,,,0.00,Wunderground v.1.15,2014-01-05 11:45:00,
2014-01-05 04:50:00,5.2,-2.2,30.79,SW,228,0.0,1.0,71,0.00,,,0.00,Wunderground v.1.15,2014-01-05 11:50:00,
2014-01-05 04:55:00,5.1,-2.6,30.79,SW,225,0.0,1.0,70,0.00,,,0.00,Wunderground v.1.15,2014-01-05 11:55:00,
2014-01-05 05:00:00,5.0,-3.0,30.80,SW,225,0.0,1.0,69,0.00,,,0.00,Wunderground v.1.15,2014-01-05 12:00:00,
2014-01-05 05:15:00,4.9,-5.6,30.80,SSW,211,0.0,1.0,61,0.00,,,0.00,Wunderground v.1.15,2014-01-05 12:15:00,
2014-01-05 05:20:00,4.9,-5.6,30.80,SW,215,1.0,1.0,61,0.00,,,0.00,Wunderground v.1.15,2014-01-05 12:20:00,
2014-01-05 05:25:00,4.9,-6.0,30.80,SW,215,1.0,1.0,60,0.00,,,0.00,Wunderground v.1.15,2014-01-05 12:25:00,
2014-01-05 05:34:00,4.7,-6.2,30.82,SW,215,0.0,1.0,60,0.00,,,0.00,Wunderground v.1.15,2014-01-05 12:34:00,
2014-01-05 05:39:00,4.6,-5.9,30.82,SW,219,0.0,2.0,61,0.00,,,0.00,Wunderground v.1.15,2014-01-05 12:39:00,
2014-01-05 05:44:00,4.4,-5.8,30.82,SW,224,1.0,2.0,62,0.00,,,0.00,Wunderground v.1.15,2014-01-05 12:44:00,
2014-01-05 05:49:00,4.2,-6.0,30.83,WSW,240,1.0,1.0,62,0.00,,,0.00,Wunderground v.1.15,2014-01-05 12:49:00,
2014-01-05 05:54:00,4.1,-6.0,30.83,SW,228,1.0,3.0,62,0.00,,,0.00,Wunderground v.1.15,2014-01-05 12:54:00,
2014-01-05 05:59:00,3.9,-5.6,30.84,SW,227,1.0,4.0,64,0.00,,,0.00,Wunderground v.1.15,2014-01-05 12:59:00,
2014-01-05 06:10:00,3.5,-4.1,30.85,SSW,211,2.0,6.0,70,0.00,,,0.00,Wunderground v.1.15,2014-01-05 13:10:00,
2014-01-05 06:15:00,3.2,-4.4,30.85,WSW,237,2.0,6.0,70,0.00,,,0.00,Wunderground v.1.15,2014-01-05 13:15:00,
2014-01-05 06:25:00,2.6,-4.7,30.86,WSW,239,1.0,6.0,71,0.00,,,0.00,Wunderground v.1.15,2014-01-05 13:25:00,
2014-01-05 06:30:00,2.4,-4.9,30.86,SW,229,1.0,6.0,71,0.00,,,0.00,Wunderground v.1.15,2014-01-05 13:30:00,
2014-01-05 06:35:00,2.1,-5.2,30.86,SW,236,2.0,6.0,71,0.00,,,0.00,Wunderground v.1.15,2014-01-05 13:35:00,
2014-01-05 06:50:00,1.5,-5.4,30.84,WSW,246,0.0,6.0,72,0.00,,,0.00,Wunderground v.1.15,2014-01-05 13:50:00,
2014-01-05 07:04:00,1.1,-6.7,30.87,WSW,246,1.0,6.0,69,0.00,,,0.00,Wunderground v.1.15,2014-01-05 14:04:00,
2014-01-05 07:09:00,0.9,-7.5,30.87,WSW,248,1.0,6.0,67,0.00,,,0.00,Wunderground v.1.15,2014-01-05 14:09:00,
2014-01-05 07:14:00,0.7,-7.7,30.88,SW,226,1.0,6.0,67,0.00,,,0.00,Wunderground v.1.15,2014-01-05 14:14:00,
2014-01-05 07:19:00,0.5,-7.6,30.89,West,270,1.0,1.0,68,0.00,,,0.00,Wunderground v.1.15,2014-01-05 14:19:00,
2014-01-05 07:24:00,0.4,-7.7,30.89,West,269,1.0,6.0,68,0.00,,,0.00,Wunderground v.1.15,2014-01-05 14:24:00,
2014-01-05 07:29:00,0.2,-8.5,30.89,West,261,1.0,1.0,66,0.00,,,0.00,Wunderground v.1.15,2014-01-05 14:29:00,
2014-01-05 07:40:00,0.0,-9.3,30.90,SW,227,1.0,1.0,64,0.00,,,0.00,Wunderground v.1.15,2014-01-05 14:40:00,
2014-01-05 07:45:00,-0.1,-9.1,30.90,SW,215,1.0,2.0,65,0.00,,,0.00,Wunderground v.1.15,2014-01-05 14:45:00,
2014-01-05 07:50:00,-0.2,-8.9,30.91,SW,217,1.0,1.0,66,0.00,,,0.00,Wunderground v.1.15,2014-01-05 14:50:00,
2014-01-05 07:55:00,-0.2,-9.2,30.91,SSW,207,1.0,6.0,65,0.00,,,0.00,Wunderground v.1.15,2014-01-05 14:55:00,
2014-01-05 08:05:00,-0.5,-9.8,30.91,SW,228,2.0,2.0,64,0.00,,,0.00,Wunderground v.1.15,2014-01-05 15:05:00,
2014-01-05 08:15:00,-0.7,-9.0,30.92,WSW,237,1.0,4.0,67,0.00,,,0.00,Wunderground v.1.15,2014-01-05 15:15:00,
2014-01-05 08:20:00,-0.9,-8.9,30.92,SW,227,1.0,1.0,68,0.00,,,0.00,Wunderground v.1.15,2014-01-05 15:20:00,
2014-01-05 08:25:00,-1.0,-9.3,30.93,SSW,205,1.0,2.0,67,0.00,,,0.00,Wunderground v.1.15,2014-01-05 15:25:00,
2014-01-05 08:30:00,-1.1,-9.1,30.93,SW,223,1.0,4.0,68,0.00,,,0.00,Wunderground v.1.15,2014-01-05 15:30:00,
2014-01-05 08:35:00,-1.2,-9.2,30.93,WNW,288,1.0,4.0,68,0.00,,,0.00,Wunderground v.1.15,2014-01-05 15:35:00,
2014-01-05 08:45:00,-1.3,-9.3,30.94,NE,46,0.0,4.0,68,0.00,,,0.00,Wunderground v.1.15,2014-01-05 15:45:00,
2014-01-05 08:54:00,-1.3,-9.6,30.96,NE,46,0.0,4.0,67,0.00,,,0.00,Wunderground v.1.15,2014-01-05 15:54:00,
2014-01-05 08:59:00,-1.2,-9.8,30.96,NE,46,0.0,4.0,66,0.00,,,0.00,Wunderground v.1.15,2014-01-05 15:59:00,
2014-01-05 09:04:00,-1.1,-10.4,30.97,SW,217,1.0,4.0,64,0.00,,,0.00,Wunderground v.1.15,2014-01-05 16:04:00,
2014-01-05 09:09:00,-0.9,-10.2,30.97,West,260,1.0,1.0,64,0.00,,,0.00,Wunderground v.1.15,2014-01-05 16:09:00,
2014-01-05 09:14:00,-0.8,-10.4,30.97,West,266,0.0,1.0,63,0.00,,,0.00,Wunderground v.1.15,2014-01-05 16:14:00,
2014-01-05 09:20:00,-0.8,-10.4,30.96,SW,224,1.0,2.0,63,0.00,,,0.00,Wunderground v.1.15,2014-01-05 16:20:00,
2014-01-05 09:25:00,-0.8,-11.0,30.97,West,262,1.0,2.0,61,0.00,,,0.00,Wunderground v.1.15,2014-01-05 16:25:00,
2014-01-05 09:30:00,-0.8,-11.4,30.97,West,261,1.0,1.0,60,0.00,,,0.00,Wunderground v.1.15,2014-01-05 16:30:00,
2014-01-05 09:35:00,-0.8,-11.4,30.98,North,5,0.0,1.0,60,0.00,,,0.00,Wunderground v.1.15,2014-01-05 16:35:00,
2014-01-05 09:40:00,-0.8,-11.4,30.98,WNW,285,0.0,1.0,60,0.00,,,0.00,Wunderground v.1.15,2014-01-05 16:40:00,
2014-01-05 09:45:00,-0.9,-11.8,30.99,East,88,0.0,1.0,59,0.00,,,0.00,Wunderground v.1.15,2014-01-05 16:45:00,
2014-01-05 09:54:00,-0.8,-10.7,30.99,East,97,0.0,1.0,62,0.00,,,0.00,Wunderground v.1.15,2014-01-05 16:54:00,
2014-01-05 10:00:00,-0.8,-11.0,30.99,SW,221,0.0,0.0,61,0.00,,,0.00,Wunderground v.1.15,2014-01-05 17:00:00,
2014-01-05 10:09:00,-0.7,-10.6,31.00,East,98,0.0,3.0,62,0.00,,,0.00,Wunderground v.1.15,2014-01-05 17:09:00,
2014-01-05 10:14:00,-0.7,-10.6,31.00,East,85,1.0,3.0,62,0.00,,,0.00,Wunderground v.1.15,2014-01-05 17:14:00,
2014-01-05 10:19:00,-0.7,-10.3,31.00,ENE,57,1.0,1.0,63,0.00,,,0.00,Wunderground v.1.15,2014-01-05 17:19:00,
2014-01-05 10:29:00,-0.7,-10.9,31.00,SSW,207,0.0,2.0,61,0.00,,,0.00,Wunderground v.1.15,2014-01-05 17:29:00,
2014-01-05 10:34:00,-0.8,-11.4,31.00,SSW,207,0.0,2.0,60,0.00,,,0.00,Wunderground v.1.15,2014-01-05 17:34:00,
2014-01-05 10:45:00,-0.8,-11.0,31.00,NNE,24,0.0,2.0,61,0.00,,,0.00,Wunderground v.1.15,2014-01-05 17:45:00,
2014-01-05 10:50:00,-0.7,-10.6,31.00,SSW,203,0.0,2.0,62,0.00,,,0.00,Wunderground v.1.15,2014-01-05 17:50:00,
2014-01-05 10:59:00,-0.6,-10.2,30.99,SSW,204,0.0,2.0,63,0.00,,,0.00,Wunderground v.1.15,2014-01-05 17:59:00,
2014-01-05 11:04:00,-0.5,-10.1,30.99,NNW,345,0.0,2.0,63,0.00,,,0.00,Wunderground v.1.15,2014-01-05 18:04:00,
2014-01-05 11:09:00,-0.5,-10.1,31.00,WNW,282,0.0,1.0,63,0.00,,,0.00,Wunderground v.1.15,2014-01-05 18:09:00,
2014-01-05 11:14:00,-0.5,-10.8,31.00,WSW,248,0.0,1.0,61,0.00,,,0.00,Wunderground v.1.15,2014-01-05 18:14:00,
2014-01-05 11:19:00,-0.4,-10.7,30.99,WSW,246,0.0,1.0,61,0.00,,,0.00,Wunderground v.1.15,2014-01-05 18:19:00,
2014-01-05 11:24:00,-0.3,-10.2,30.99,WSW,248,0.0,1.0,62,0.00,,,0.00,Wunderground v.1.15,2014-01-05 18:24:00,
2014-01-05 11:34:00,-0.1,-10.7,30.99,SE,139,0.0,1.0,60,0.00,,,0.00,Wunderground v.1.15,2014-01-05 18:34:00,
2014-01-05 11:39:00,0.0,-10.3,30.98,ESE,104,0.0,2.0,61,0.00,,,0.00,Wunderground v.1.15,2014-01-05 18:39:00,
2014-01-05 11:44:00,0.3,-9.3,30.99,East,92,0.0,2.0,63,0.00,,,0.00,Wunderground v.1.15,2014-01-05 18:44:00,
2014-01-05 11:49:00,0.5,-9.8,30.99,ESE,112,1.0,1.0,61,0.00,,,0.00,Wunderground v.1.15,2014-01-05 18:49:00,
2014-01-05 11:54:00,0.6,-9.1,30.98,SSE,159,0.0,1.0,63,0.00,,,0.00,Wunderground v.1.15,2014-01-05 18:54:00,
2014-01-05 11:59:00,0.7,-9.0,30.98,ESE,107,0.0,1.0,63,0.00,,,0.00,Wunderground v.1.15,2014-01-05 18:59:00,
2014-01-05 12:09:00,0.9,-9.4,30.98,East,92,0.0,2.0,61,0.00,,,0.00,Wunderground v.1.15,2014-01-05 19:09:00,
2014-01-05 12:14:00,0.9,-9.8,30.98,East,92,1.0,2.0,60,0.00,,,0.00,Wunderground v.1.15,2014-01-05 19:14:00,
2014-01-05 12:19:00,0.9,-10.1,30.98,East,92,0.0,2.0,59,0.00,,,0.00,Wunderground v.1.15,2014-01-05 19:19:00,
2014-01-05 12:24:00,1.0,-10.0,30.98,East,92,0.0,2.0,59,0.00,,,0.00,Wunderground v.1.15,2014-01-05 19:24:00,
2014-01-05 12:29:00,1.0,-10.0,30.98,East,92,0.0,2.0,59,0.00,,,0.00,Wunderground v.1.15,2014-01-05 19:29:00,
2014-01-05 12:34:00,1.1,-9.6,30.97,East,92,0.0,2.0,60,0.00,,,0.00,Wunderground v.1.15,2014-01-05 19:34:00,
2014-01-05 12:40:00,1.2,-9.1,30.97,East,92,0.0,2.0,61,0.00,,,0.00,Wunderground v.1.15,2014-01-05 19:40:00,
2014-01-05 12:45:00,1.3,-9.0,30.97,East,92,0.0,2.0,61,0.00,,,0.00,Wunderground v.1.15,2014-01-05 19:45:00,
2014-01-05 12:54:00,1.4,-9.6,30.97,East,92,0.0,2.0,59,0.00,,,0.00,Wunderground v.1.15,2014-01-05 19:54:00,
2014-01-05 12:59:00,1.5,-9.2,30.96,East,92,0.0,2.0,60,0.00,,,0.00,Wunderground v.1.15,2014-01-05 19:59:00,
2014-01-05 13:04:00,1.6,-8.8,30.96,East,92,0.0,2.0,61,0.00,,,0.00,Wunderground v.1.15,2014-01-05 20:04:00,
2014-01-05 13:09:00,1.8,-8.9,30.96,East,92,0.0,0.0,60,0.00,,,0.00,Wunderground v.1.15,2014-01-05 20:09:00,
2014-01-05 13:15:00,1.9,-8.8,30.96,East,92,0.0,0.0,60,0.00,,,0.00,Wunderground v.1.15,2014-01-05 20:15:00,
2014-01-05 13:20:00,2.0,-9.4,30.96,ESE,106,0.0,0.0,58,0.00,,,0.00,Wunderground v.1.15,2014-01-05 20:20:00,
2014-01-05 13:25:00,2.2,-9.2,30.96,ESE,109,0.0,0.0,58,0.00,,,0.00,Wunderground v.1.15,2014-01-05 20:25:00,
2014-01-05 13:30:00,2.3,-9.1,30.96,ESE,114,0.0,0.0,58,0.00,,,0.00,Wunderground v.1.15,2014-01-05 20:30:00,
2014-01-05 13:39:00,2.5,-8.9,30.96,ESE,114,0.0,0.0,58,0.00,,,0.00,Wunderground v.1.15,2014-01-05 20:39:00,
2014-01-05 13:45:00,2.7,-9.1,30.95,ESE,114,0.0,0.0,57,0.00,,,0.00,Wunderground v.1.15,2014-01-05 20:45:00,
2014-01-05 13:50:00,2.7,-9.1,30.95,ESE,114,0.0,0.0,57,0.00,,,0.00,Wunderground v.1.15,2014-01-05 20:50:00,
2014-01-05 13:55:00,2.8,-9.0,30.95,ESE,114,0.0,0.0,57,0.00,,,0.00,Wunderground v.1.15,2014-01-05 20:55:00,
2014-01-05 14:00:00,2.9,-8.9,30.95,NE,46,0.0,0.0,57,0.00,,,0.00,Wunderground v.1.15,2014-01-05 21:00:00,
2014-01-05 14:10:00,3.1,-8.4,30.95,ENE,70,0.0,2.0,58,0.00,,,0.00,Wunderground v.1.15,2014-01-05 21:10:00,
2014-01-05 14:15:00,3.2,-7.9,30.94,ENE,71,0.0,2.0,59,0.00,,,0.00,Wunderground v.1.15,2014-01-05 21:15:00,
2014-01-05 14:24:00,3.2,-7.2,30.94,ENE,71,0.0,2.0,61,0.00,,,0.00,Wunderground v.1.15,2014-01-05 21:24:00,
2014-01-05 14:29:00,3.3,-7.5,30.94,ENE,71,0.0,2.0,60,0.00,,,0.00,Wunderground v.1.15,2014-01-05 21:29:00,
2014-01-05 14:35:00,3.3,-7.1,30.94,ENE,71,0.0,2.0,61,0.00,,,0.00,Wunderground v.1.15,2014-01-05 21:35:00,
2014-01-05 14:40:00,3.3,-7.1,30.94,ENE,71,0.0,2.0,61,0.00,,,0.00,Wunderground v.1.15,2014-01-05 21:40:00,
2014-01-05 14:45:00,3.2,-7.2,30.94,ENE,71,0.0,2.0,61,0.00,,,0.00,Wunderground v.1.15,2014-01-05 21:45:00,
2014-01-05 14:54:00,3.2,-7.2,30.94,ENE,71,0.0,2.0,61,0.00,,,0.00,Wunderground v.1.15,2014-01-05 21:54:00,
2014-01-05 14:59:00,3.2,-7.2,30.94,ENE,71,0.0,2.0,61,0.00,,,0.00,Wunderground v.1.15,2014-01-05 21:59:00,
2014-01-05 15:04:00,3.1,-7.3,30.94,ENE,71,0.0,2.0,61,0.00,,,0.00,Wunderground v.1.15,2014-01-05 22:04:00,
2014-01-05 15:09:00,3.0,-7.4,30.94,ENE,71,0.0,0.0,61,0.00,,,0.00,Wunderground v.1.15,2014-01-05 22:09:00,
2014-01-05 15:14:00,3.0,-7.1,30.94,ENE,71,0.0,0.0,62,0.00,,,0.00,Wunderground v.1.15,2014-01-05 22:14:00,
2014-01-05 15:19:00,2.9,-7.2,30.94,ENE,71,0.0,0.0,62,0.00,,,0.00,Wunderground v.1.15,2014-01-05 22:19:00,
2014-01-05 15:29:00,2.8,-7.3,30.94,ENE,71,0.0,0.0,62,0.00,,,0.00,Wunderground v.1.15,2014-01-05 22:29:00,
2014-01-05 15:34:00,2.8,-7.3,30.94,ENE,71,0.0,0.0,62,0.00,,,0.00,Wunderground v.1.15,2014-01-05 22:34:00,
2014-01-05 15:39:00,2.7,-7.7,30.94,ENE,71,0.0,0.0,61,0.00,,,0.00,Wunderground v.1.15,2014-01-05 22:39:00,
2014-01-05 15:44:00,2.7,-7.1,30.94,ENE,71,0.0,0.0,63,0.00,,,0.00,Wunderground v.1.15,2014-01-05 22:44:00,
2014-01-05 15:49:00,2.6,-7.5,30.94,ENE,71,0.0,0.0,62,0.00,,,0.00,Wunderground v.1.15,2014-01-05 22:49:00,
2014-01-05 15:54:00,2.6,-7.5,30.94,ENE,71,0.0,0.0,62,0.00,,,0.00,Wunderground v.1.15,2014-01-05 22:54:00,
2014-01-05 16:04:00,2.5,-7.9,30.94,ENE,71,0.0,0.0,61,0.00,,,0.00,Wunderground v.1.15,2014-01-05 23:04:00,
2014-01-05 16:09:00,2.4,-8.0,30.94,ENE,71,0.0,0.0,61,0.00,,,0.00,Wunderground v.1.15,2014-01-05 23:09:00,
2014-01-05 16:14:00,2.2,-8.2,30.94,ENE,71,0.0,0.0,61,0.00,,,0.00,Wunderground v.1.15,2014-01-05 23:14:00,
2014-01-05 16:19:00,2.1,-8.6,30.94,ENE,71,0.0,0.0,60,0.00,,,0.00,Wunderground v.1.15,2014-01-05 23:19:00,
2014-01-05 16:24:00,1.8,-8.9,30.94,ENE,71,0.0,0.0,60,0.00,,,0.00,Wunderground v.1.15,2014-01-05 23:24:00,
2014-01-05 16:29:00,1.4,-8.9,30.94,ENE,71,0.0,0.0,61,0.00,,,0.00,Wunderground v.1.15,2014-01-05 23:29:00,
2014-01-05 16:39:00,0.7,-9.3,30.94,ENE,71,0.0,1.0,62,0.00,,,0.00,Wunderground v.1.15,2014-01-05 23:39:00,
2014-01-05 16:44:00,0.3,-9.3,30.94,ENE,71,0.0,2.0,63,0.00,,,0.00,Wunderground v.1.15,2014-01-05 23:44:00,
2014-01-05 16:49:00,0.0,-9.6,30.94,ENE,71,0.0,1.0,63,0.00,,,0.00,Wunderground v.1.15,2014-01-05 23:49:00,
2014-01-05 16:54:00,-0.4,-10.0,30.94,SW,219,1.0,1.0,63,0.00,,,0.00,Wunderground v.1.15,2014-01-05 23:54:00,
2014-01-05 16:59:00,-0.7,-10.0,30.94,SW,219,1.0,1.0,64,0.00,,,0.00,Wunderground v.1.15,2014-01-05 23:59:00,
2014-01-05 17:04:00,-0.9,-9.8,30.94,SW,219,1.0,2.0,65,0.00,,,0.00,Wunderground v.1.15,2014-01-06 00:04:00,
2014-01-05 17:10:00,-1.2,-9.8,30.94,SW,219,1.0,1.0,66,0.00,,,0.00,Wunderground v.1.15,2014-01-06 00:10:00,
2014-01-05 17:15:00,-1.4,-9.7,30.94,SW,219,0.0,2.0,67,0.00,,,0.00,Wunderground v.1.15,2014-01-06 00:15:00,
2014-01-05 17:20:00,-1.5,-9.5,30.94,SW,219,0.0,2.0,68,0.00,,,0.00,Wunderground v.1.15,2014-01-06 00:20:00,
2014-01-05 17:25:00,-1.6,-9.6,30.93,SW,219,0.0,2.0,68,0.00,,,0.00,Wunderground v.1.15,2014-01-06 00:25:00,
2014-01-05 17:30:00,-1.7,-9.7,30.94,SW,219,0.0,2.0,68,0.00,,,0.00,Wunderground v.1.15,2014-01-06 00:30:00,
2014-01-05 17:35:00,-1.8,-9.8,30.93,SW,219,1.0,2.0,68,0.00,,,0.00,Wunderground v.1.15,2014-01-06 00:35:00,
2014-01-05 17:40:00,-1.9,-9.6,30.93,SW,219,1.0,2.0,69,0.00,,,0.00,Wunderground v.1.15,2014-01-06 00:40:00,
2014-01-05 17:45:00,-2.1,-9.8,30.93,SW,219,1.0,2.0,69,0.00,,,0.00,Wunderground v.1.15,2014-01-06 00:45:00,
2014-01-05 17:50:00,-2.2,-9.9,30.93,SW,219,1.0,2.0,69,0.00,,,0.00,Wunderground v.1.15,2014-01-06 00:50:00,
2014-01-05 17:55:00,-2.3,-10.0,30.92,SW,219,1.0,2.0,69,0.00,,,0.00,Wunderground v.1.15,2014-01-06 00:55:00,
2014-01-05 18:00:00,-2.4,-9.8,30.92,SW,219,1.0,2.0,70,0.00,,,0.00,Wunderground v.1.15,2014-01-06 01:00:00,
2014-01-05 18:05:00,-2.5,-9.9,30.92,SW,219,1.0,2.0,70,0.00,,,0.00,Wunderground v.1.15,2014-01-06 01:05:00,
2014-01-05 18:10:00,-2.6,-10.0,30.93,SW,219,1.0,2.0,70,0.00,,,0.00,Wunderground v.1.15,2014-01-06 01:10:00,
2014-01-05 18:19:00,-2.8,-9.9,30.92,SW,219,2.0,2.0,71,0.00,,,0.00,Wunderground v.1.15,2014-01-06 01:19:00,
2014-01-05 18:24:00,-2.9,-9.7,30.92,SW,219,1.0,2.0,72,0.00,,,0.00,Wunderground v.1.15,2014-01-06 01:24:00,
2014-01-05 18:29:00,-2.9,-9.7,30.92,SW,219,1.0,2.0,72,0.00,,,0.00,Wunderground v.1.15,2014-01-06 01:29:00,
2014-01-05 18:35:00,-3.0,-9.8,30.92,SW,219,1.0,2.0,72,0.00,,,0.00,Wunderground v.1.15,2014-01-06 01:35:00,
2014-01-05 18:40:00,-3.0,-9.5,30.92,SW,219,1.0,2.0,73,0.00,,,0.00,Wunderground v.1.15,2014-01-06 01:40:00,
2014-01-05 18:49:00,-2.9,-9.4,30.92,SW,219,1.0,2.0,73,0.00,,,0.00,Wunderground v.1.15,2014-01-06 01:49:00,
2014-01-05 18:54:00,-2.8,-9.3,30.92,SW,219,1.0,2.0,73,0.00,,,0.00,Wunderground v.1.15,2014-01-06 01:54:00,
2014-01-05 18:59:00,-2.8,-9.3,30.92,SW,219,1.0,2.0,73,0.00,,,0.00,Wunderground v.1.15,2014-01-06 01:59:00,
2014-01-05 19:04:00,-2.8,-9.3,30.92,SW,219,1.0,2.0,73,0.00,,,0.00,Wunderground v.1.15,2014-01-06 02:04:00,
2014-01-05 19:09:00,-2.8,-9.3,30.92,SW,219,1.0,1.0,73,0.00,,,0.00,Wunderground v.1.15,2014-01-06 02:09:00,
2014-01-05 19:14:00,-2.8,-9.3,30.92,SW,219,0.0,2.0,73,0.00,,,0.00,Wunderground v.1.15,2014-01-06 02:14:00,
2014-01-05 19:24:00,-2.6,-8.8,30.92,SW,219,1.0,2.0,74,0.00,,,0.00,Wunderground v.1.15,2014-01-06 02:24:00,
2014-01-05 19:29:00,-2.6,-8.8,30.92,SW,219,1.0,2.0,74,0.00,,,0.00,Wunderground v.1.15,2014-01-06 02:29:00,
2014-01-05 19:34:00,-2.5,-8.7,30.92,SW,219,1.0,2.0,74,0.00,,,0.00,Wunderground v.1.15,2014-01-06 02:34:00,
2014-01-05 19:39:00,-2.5,-8.7,30.91,SW,219,1.0,2.0,74,0.00,,,0.00,Wunderground v.1.15,2014-01-06 02:39:00,
2014-01-05 19:44:00,-2.5,-8.7,30.91,SW,219,1.0,2.0,74,0.00,,,0.00,Wunderground v.1.15,2014-01-06 02:44:00,
2014-01-05 19:49:00,-2.4,-8.7,30.91,SW,219,1.0,2.0,74,0.00,,,0.00,Wunderground v.1.15,2014-01-06 02:49:00,
2014-01-05 19:59:00,-2.2,-8.5,30.91,SW,219,1.0,2.0,74,0.00,,,0.00,Wunderground v.1.15,2014-01-06 02:59:00,
2014-01-05 20:04:00,-2.1,-8.4,30.91,SW,219,0.0,2.0,74,0.00,,,0.00,Wunderground v.1.15,2014-01-06 03:04:00,
2014-01-05 20:09:00,-2.0,-8.3,30.90,SW,219,0.0,2.0,74,0.00,,,0.00,Wunderground v.1.15,2014-01-06 03:09:00,
2014-01-05 20:14:00,-1.9,-8.2,30.90,SW,219,1.0,2.0,74,0.00,,,0.00,Wunderground v.1.15,2014-01-06 03:14:00,
2014-01-05 20:19:00,-1.8,-7.8,30.90,SW,219,0.0,2.0,75,0.00,,,0.00,Wunderground v.1.15,2014-01-06 03:19:00,
2014-01-05 20:24:00,-1.8,-7.8,30.90,SW,219,0.0,2.0,75,0.00,,,0.00,Wunderground v.1.15,2014-01-06 03:24:00,
2014-01-05 20:34:00,-1.7,-8.0,30.91,SW,219,0.0,2.0,74,0.00,,,0.00,Wunderground v.1.15,2014-01-06 03:34:00,
2014-01-05 20:39:00,-1.7,-8.0,30.91,SW,219,0.0,2.0,74,0.00,,,0.00,Wunderground v.1.15,2014-01-06 03:39:00,
2014-01-05 20:44:00,-1.8,-8.1,30.90,SW,219,0.0,2.0,74,0.00,,,0.00,Wunderground v.1.15,2014-01-06 03:44:00,
2014-01-05 20:49:00,-1.7,-7.7,30.91,SW,219,0.0,2.0,75,0.00,,,0.00,Wunderground v.1.15,2014-01-06 03:49:00,
2014-01-05 20:54:00,-1.8,-7.8,30.91,SW,219,0.0,2.0,75,0.00,,,0.00,Wunderground v.1.15,2014-01-06 03:54:00,
2014-01-05 21:04:00,-1.8,-7.8,30.90,SW,219,0.0,2.0,75,0.00,,,0.00,Wunderground v.1.15,2014-01-06 04:04:00,
2014-01-05 21:09:00,-1.8,-7.8,30.90,SW,219,0.0,2.0,75,0.00,,,0.00,Wunderground v.1.15,2014-01-06 04:09:00,
2014-01-05 21:14:00,-1.9,-7.9,30.90,SW,219,0.0,2.0,75,0.00,,,0.00,Wunderground v.1.15,2014-01-06 04:14:00,
2014-01-05 21:19:00,-1.9,-7.9,30.90,SW,219,0.0,2.0,75,0.00,,,0.00,Wunderground v.1.15,2014-01-06 04:19:00,
2014-01-05 21:24:00,-1.9,-7.9,30.90,SW,219,1.0,2.0,75,0.00,,,0.00,Wunderground v.1.15,2014-01-06 04:24:00,
2014-01-05 21:29:00,-2.0,-8.0,30.90,SW,219,1.0,1.0,75,0.00,,,0.00,Wunderground v.1.15,2014-01-06 04:29:00,
2014-01-05 21:39:00,-2.1,-8.1,30.90,SW,219,0.0,2.0,75,0.00,,,0.00,Wunderground v.1.15,2014-01-06 04:39:00,
2014-01-05 21:44:00,-2.1,-7.8,30.90,SW,219,0.0,2.0,76,0.00,,,0.00,Wunderground v.1.15,2014-01-06 04:44:00,
2014-01-05 21:49:00,-2.1,-7.8,30.90,SW,219,0.0,2.0,76,0.00,,,0.00,Wunderground v.1.15,2014-01-06 04:49:00,
2014-01-05 21:54:00,-2.2,-8.2,30.91,SW,219,0.0,2.0,75,0.00,,,0.00,Wunderground v.1.15,2014-01-06 04:54:00,
2014-01-05 21:59:00,-2.2,-8.2,30.91,SW,219,0.0,2.0,75,0.00,,,0.00,Wunderground v.1.15,2014-01-06 04:59:00,
2014-01-05 22:04:00,-2.3,-8.3,30.91,SW,219,0.0,2.0,75,0.00,,,0.00,Wunderground v.1.15,2014-01-06 05:04:00,
2014-01-05 22:09:00,-2.3,-8.3,30.91,SW,219,1.0,1.0,75,0.00,,,0.00,Wunderground v.1.15,2014-01-06 05:09:00,
2014-01-05 22:14:00,-2.3,-8.3,30.91,SW,219,1.0,1.0,75,0.00,,,0.00,Wunderground v.1.15,2014-01-06 05:14:00,
2014-01-05 22:19:00,-2.3,-8.3,30.90,SW,219,1.0,1.0,75,0.00,,,0.00,Wunderground v.1.15,2014-01-06 05:19:00,
2014-01-05 22:24:00,-2.3,-8.3,30.90,SW,219,1.0,1.0,75,0.00,,,0.00,Wunderground v.1.15,2014-01-06 05:24:00,
2014-01-05 22:29:00,-2.3,-8.3,30.90,SW,219,0.0,1.0,75,0.00,,,0.00,Wunderground v.1.15,2014-01-06 05:29:00,
2014-01-05 22:34:00,-2.2,-8.2,30.91,SW,219,1.0,1.0,75,0.00,,,0.00,Wunderground v.1.15,2014-01-06 05:34:00,
2014-01-05 22:39:00,-2.2,-8.2,30.90,SW,219,1.0,1.0,75,0.00,,,0.00,Wunderground v.1.15,2014-01-06 05:39:00,
2014-01-05 22:49:00,-2.3,-8.3,30.91,SW,219,1.0,1.0,75,0.00,,,0.00,Wunderground v.1.15,2014-01-06 05:49:00,
2014-01-05 22:54:00,-2.2,-7.9,30.90,SW,219,1.0,1.0,76,0.00,,,0.00,Wunderground v.1.15,2014-01-06 05:54:00,
2014-01-05 22:59:00,-2.1,-7.8,30.90,SW,219,1.0,1.0,76,0.00,,,0.00,Wunderground v.1.15,2014-01-06 05:59:00,
2014-01-05 23:04:00,-2.0,-7.7,30.91,SW,219,0.0,1.0,76,0.00,,,0.00,Wunderground v.1.15,2014-01-06 06:04:00,
2014-01-05 23:09:00,-1.9,-7.6,30.91,SW,219,0.0,1.0,76,0.00,,,0.00,Wunderground v.1.15,2014-01-06 06:09:00,
2014-01-05 23:14:00,-1.8,-7.5,30.90,SW,219,0.0,1.0,76,0.00,,,0.00,Wunderground v.1.15,2014-01-06 06:14:00,
2014-01-05 23:24:00,-1.8,-7.5,30.91,SW,219,0.0,1.0,76,0.00,,,0.00,Wunderground v.1.15,2014-01-06 06:24:00,
2014-01-05 23:29:00,-1.7,-7.4,30.91,SW,219,0.0,1.0,76,0.00,,,0.00,Wunderground v.1.15,2014-01-06 06:29:00,
2014-01-05 23:34:00,-1.7,-7.4,30.91,SW,219,0.0,1.0,76,0.00,,,0.00,Wunderground v.1.15,2014-01-06 06:34:00,
2014-01-05 23:39:00,-1.7,-7.2,30.91,SW,219,0.0,1.0,77,0.00,,,0.00,Wunderground v.1.15,2014-01-06 06:39:00,
2014-01-05 23:44:00,-1.6,-7.3,30.90,SW,219,1.0,1.0,76,0.00,,,0.00,Wunderground v.1.15,2014-01-06 06:44:00,
2014-01-05 23:50:00,-1.6,-7.6,30.90,SW,219,1.0,2.0,75,0.00,,,0.00,Wunderground v.1.15,2014-01-06 06:50:00,
2014-01-05 23:55:00,-1.7,-7.7,30.90,SW,219,1.0,2.0,75,0.00,,,0.00,Wunderground v.1.15,2014-01-06 06:55:00,